Home  Contact  Equipment  Field Notes  Photos  Data  Logs Today's Date:   
   
   
  Biomet public Home Public Navigation

Equipment
Sites
Streams
Stream Fields
Photo Database
Field Notes
   
   
   
   
   
 
 

Equipment and Calibration

View All History

IDEquipmentModelSerial No.Last EntryCurrent Location Description
565 Camera SD130BN 0030F4D21491 2016-05-20Lab Received from Andrew Richardson as part of the Phenocam Project. 1.3MP, 4.0mm 1/1.8" IR lens
564 Cal Gas NOAA-CMDL CB09920 2016-04-27Factory CH4 in air 1899.19ppb 0.10ppb SDEV. 3-guage Aluminum 2015psi max. Five year Hydrostatic test frequency.
563 Cal Gas NOAA-CMDL CA07091 2016-04-27Lab CH4 in air 1897.8ppb. 3-guage Aluminum 2015psi max. Five year Hydrostatic test frequency.
562 Cal Gas NOAA-CMDL CA04951 2016-04-27Lab CO2 in air 2238.11ppm ?.??ppm SDEV. 3-guage Aluminum 2015psi max. Five year Hydrostatic test frequency.
561 Cal Gas NOAA-CMDL CA03911 2016-04-27Lab CO2 in air 402.69ppm 0.05ppm SDEV. 3-guage Aluminum 2015psi max. Five year Hydrostatic test frequency.
560 Cal Gas NOAA-CMDL CA03923 2016-04-27Lab CO2 in air 344.95ppm 0.01ppm SDEV. 3-guage Aluminum 2015psi max. Five year Hydrostatic test frequency.
559 Cal Gas NOAA-CMDL CA04119 2016-04-27Lab CO2 in air 421.22ppm 0.04ppm SDEV. 3-guage Aluminum 2015psi max. Five year Hydrostatic test frequency.
558 Cal Gas NOAA-CMDL CA04369 2016-04-27Lab CO2 in air 370.91ppm 0.02ppm SDEV. 3-guage Aluminum 2015psi max. Five year Hydrostatic test frequency.
557 Camera SD130BN 0030F4D2148D 2016-05-17Twitchell Alfalfa Received from Andrew Richardson as part of the Phenocam Project. 1.3MP, 4.0mm 1/1.8" IR lens
556 Solar Controller PS-30M 02431248 2016-03-09Lab
555 Solar Controller PS-30M 0135002X 2016-03-09Tonzi Tower
554 Battery Bank BB-Fab BB-EE 2016-03-09East End Battery bank for the East End Tower
553 CO2 probe GP-001 20150111 2016-03-01Lab 0-2% range
552 Battery Bank BB-Fab BB-TW 2015-12-11Twitchell Rice Battery bank for the Twitchell Rice solar system
551 CO2 Probe GP-001 GP20150109 2015-12-08East End 0-8% probe
550 CO2 probe GP-001 GP20150100 2015-12-08West Pond 0-8% probe
549 CO2 Probe GP-001 GP20140088 2015-12-07Lab 0-8% probe
548 CO2 Probe GP-001 GP20140084 2016-04-28Twitchell Alfalfa 0-2% probe
547 CO2 Probe GP-001 GP20150101 2015-12-07Lab 0-2% probe
546 CO2 Probe GP-001 GP20150102 2015-12-07Lab Dual range probe 0-0.5% and 0-2%
545 CO2 Probe GP-001 GP20150105 2015-12-07Lab Dual range probe 0-0.5% and 0-2%
544 CO2 Probe GP-001 GP20150104 2015-12-07Lab Dual range probe 0-0.5% and 0-2%
543 CO2 Probe GP-001 GP20150103 2015-12-07Lab Dual range probe 0-0.5% and 0-2%
539 Solar Panel KU265-6MCA 158APW4M0000193 2015-10-27Lab 265W, 31.0V, 8.55A
538 Solar Panel KU265-6MCA 158APW4M0000191 2015-10-27Lab 265W, 31.0V, 8.55A
537 Solar Panel KU265-6MCA 158APW4M0000190 2015-10-27Lab 265W, 31.0V, 8.55A
536 Solar Panel KU265-6MCA 158APW4M0000189 2015-10-27Lab 265W, 31.0V, 8.55A
535 Solar Panel KU265-6MCA 158APW4M0000188 2015-10-27Lab 265W, 31.0V, 8.55A
534 Solar Panel KU265-6MCA 158APW4M0000187 2015-10-27Lab 265W, 31.0V, 8.55A
533 Battery Bank BB-Fab BB-TA 2016-04-01Twitchell Alfalfa NULL
532 Battery Bank BB-Fab BB-TF 2015-11-05Tonzi Floor Battery bank for the Tonzi Floor solar system
531 PAR Sensor PSQ 1 140457 2015-10-21Lab
530 PAR Sensor PSQ 1 140456 2015-10-21Lab
529 PAR Sensor PSQ 1 140455 2015-10-21Lab
528 PAR Sensor PSQ 1 140454 2015-10-21Lab
527 PAR Sensor PSQ 1 140453 2015-10-21Lab
526 PAR Sensor PSQ 1 140452 2015-10-21Lab
525 PAR Sensor PSQ 1 140451 2015-10-21Lab
524 PAR Sensor PSQ 1 140450 2015-10-21Lab
523 PAR Sensor PSQ 1 140441 2015-10-21Lab
522 Narrow Band SRS-Pi PRI 897103002 2015-10-13Lab Cosine correcting Teflon diffuser, hemispherical field of view
521 Narrow Band SRS-Pi PRI 913003006 2015-10-13Lab Cosine correcting Teflon diffuser, hemispherical field of view
520 Narrow Band SRS-Pi PRI 912903006 2015-10-13Lab Cosine correcting Teflon diffuser, hemispherical field of view
519 Narrow Band SRS-Pi PRI 913003004 2015-10-13Lab Cosine correcting Teflon diffuser, hemispherical field of view
518 Narrow Band SRS-Pi PRI 913003007 2015-10-13Lab Cosine correcting Teflon diffuser, hemispherical field of view
517 Narrow Band SRS-Pi PRI 913003012 2015-10-13Lab Cosine correcting Teflon diffuser, hemispherical field of view
516 Narrow Band SRS-Pr PRI 930103952 2015-10-13Lab Field stop, 36 degree field of view
515 Narrow Band SRS-Pr PRI 930103961 2015-10-13Lab Field stop, 36 degree field of view
514 Narrow Band SRS-Pr PRI 930203026 2015-10-13Lab Field stop, 36 degree field of view
513 Narrow Band SRS-Ni NDVI 882103059 2015-10-13Lab Cosine correcting Teflon diffuser, hemispherical field of view
512 Narrow Band SRS-Ni NDVI 882103036 2015-10-13Lab Cosine correcting Teflon diffuser, hemispherical field of view
511 Narrow Band SRS-Ni NDVI 877203409 2015-10-13Lab Cosine correcting Teflon diffuser, hemispherical field of view
510 Narrow Band SRS-Ni NDVI 882103061 2015-10-13Lab Cosine correcting Teflon diffuser, hemispherical field of view
509 Narrow Band SRS-Ni NDVI 882103021 2015-10-13Lab Cosine correcting Teflon diffuser, hemispherical field of view
508 Narrow Band SRS-Ni NDVI 882103020 2015-10-13Lab Cosine correcting Teflon diffuser, hemispherical field of view
507 Narrow Band SRS-Nr NDVI 943203017 2015-10-13Lab Field stop, 36 degree field of view
506 Narrow Band SRS-Nr NDVI 943203022 2015-10-13Lab Field stop, 36 degree field of view
505 Narrow Band SRS-Nr NDVI 943103015 2015-10-13Lab Field stop, 36 degree field of view
504 Soil Moisture Probe ML3 M003371 2015-10-14Lab
503 Soil Moisture Probe ML3 M003370 2015-10-14Lab
502 Soil Moisture Probe ML3 M003369 2015-10-14Lab
501 Soil Moisture Probe CS655 17135 2015-09-28Lab 12cm tines
500 Soil Moisture Probe CS655 17134 2015-09-28Lab 12cm tines
499 Soil Moisture Probe CS655 17133 2015-09-28Lab 12cm tines
498 Soil Moisture Probe CS655 17132 2015-09-28Lab 12cm tines
497 Soil Moisture Probe CS655 17131 2015-09-28Lab 12cm tines
496 Soil Moisture Probe CS655 17130 2015-09-28Lab 12cm tines
495 Soil Moisture Probe CS655 17129 2015-09-28Lab 12cm tines
494 Soil Moisture Probe CS655 17128 2015-09-28Lab 12cm tines
493 Soil Moisture Probe CS655 17127 2015-09-28Lab 12cm tines
492 Water Level CS451 70011234 2015-09-28Lab 0-7.25psi = 0-5.1m of water
491 Water Level CS451 70011229 2015-09-28Lab 0-7.25psi = 0-5.1m of water
490 Water Level CS451 70011236 2015-09-28Lab 0-7.25psi = 0-5.1m of water
489 Net Radiometer NR01 2466 2015-09-28Lab
488 Net Radiometer NR01 2420 2015-09-28Lab
487 Net Radiometer NR01 2418 2015-09-28Lab
486 Heat Flux Plate HFP01 11334 2015-09-28Lab Wht = +sig, Grn = -sig, Blk = shield
485 Heat Flux Plate HFP01 11332 2015-09-28Lab Wht = +sig, Grn = -sig, Blk = shield
484 Heat Flux Plate HFP01 11325 2015-09-28Lab Wht = +sig, Grn = -sig, Blk = shield
483 Heat Flux Plate HFP01 11329 2015-09-28Lab Wht = +sig, Grn = -sig, Blk = shield
482 Heat Flux Plate HFP01 11328 2015-09-28Lab Wht = +sig, Grn = -sig, Blk = shield
481 Heat Flux Plate HFP01 11326 2015-09-28Lab Wht = +sig, Grn = -sig, Blk = shield
480 Heat Flux Plate HFP01 10867 2015-09-28Lab Wht = +sig, Grn = -sig, Blk = shield
479 Heat Flux Plate HFP01 10866 2015-09-28Lab Wht = +sig, Grn = -sig, Blk = shield
478 Heat Flux Plate HFP01 10861 2015-09-28Lab Wht = +sig, Grn = -sig, Blk = shield
477 Precipitation TE525MM 65560-615 2015-09-28Lab
476 Precipitation TE525MM 65552-615 2015-09-28Lab
475 Precipitation TE525MM 65548-615 2015-09-28Lab
474 Barometer PTB110 L2340502 2015-09-28Lab
473 Barometer PTB110 L2510774 2015-09-28Lab
472 Barometer PTB110 L1920571 2015-09-28Lab
471 RH & Temp HMP60 L1740395 2015-09-28Lab
470 RH & Temp HMP60 L1740398 2015-09-28Lab
469 RH & Temp HMP60 L1740420 2015-09-28Lab
468 RH & Temp HMP60 L2310711 2015-09-28Lab
467 RH & Temp HMP60 L2310736 2015-09-28Lab
466 Multiplexer AM25T 7909 2015-09-28Lab
465 Multiplexer AM25T 7908 2015-09-28Lab
464 Multiplexer AM25T 7907 2015-09-28Lab
463 Multiplexer AM16/32B 21690 2015-09-28Lab
462 Multiplexer AM16/32B 21689 2015-09-28Lab
461 Multiplexer AM16/32B 21688 2015-09-28Lab
460 Data Logger CR6 2115 2015-09-28Lab
459 Data Logger CR6 2114 2015-09-28Lab
458 Data Logger CR6 2113 2015-09-28Lab
457 Anemometer WM 1590 153806 2015-09-24Lab 4x14-bit analog outputs, 20Hz, Firmware version 2326-601-03
456 Anemometer WM 1590 153805 2016-01-12Twitchell Alfalfa 4x14-bit analog outputs, 20Hz, Firmware version 2326-601-03
455 Anemometer WM 1590 153804 2016-01-12East End 4x14-bit analog outputs, 20Hz, Firmware version 2326-601-03
454 Anemometer WM 1590 153803 2015-09-24Lab 4x14-bit analog outputs, 20Hz, Firmware version 2326-601-03
453 Anemometer WM 1590 153802 2015-09-24Lab 4x14-bit analog outputs, 20Hz, Firmware version 2326-601-03
452 Interface LI-7550 AIU-1557 2015-09-10Lab Part of an upgrade kit to convert an old 7500 to a 7500A
451 Interface LI-7550 AIU-1570 2015-12-23Lab GHG-1 package comprised of: sn TG1-0424, sn 75H-2669, sn AIU-1570
450 Gas Analyzer LI-7500A 75H-2669 2015-12-23Lab GHG-1 package comprised of: sn TG1-0424, sn 75H-2669, sn AIU-1570
449 Gas Analyzer LI-7700 TG1-0424 2015-12-23Lab GHG-1 package comprised of: sn TG1-0424, sn 75H-2669, sn AIU-1570
448 Interface LI-7550 AIU-1569 2015-09-10Lab GHG-1 package comprised of: sn TG1-0423, sn 75H-2668, sn AIU-1569
447 Gas Analyzer LI-7500A 75H-2668 2016-05-20Lab GHG-1 package comprised of: sn TG1-0423, sn 75H-2668, sn AIU-1569
446 Gas Analyzer LI-7700 TG1-0423 2015-09-10Lab GHG-1 package comprised of: sn TG1-0423, sn 75H-2668, sn AIU-1569
445 Interface LI-7550 AIU-1568 2015-09-10Lab GHG-1 package comprised of: sn TG1-0421, sn 75H-2667, sn AIU-1568
444 Gas Analyzer LI-7500A 75H-2667 2015-09-10Lab GHG-1 package comprised of: sn TG1-0421, sn 75H-2667, sn AIU-1568
443 Gas Analyzer LI-7700 TG1-0421 2015-09-10Lab GHG-1 package comprised of: sn TG1-0421, sn 75H-2667, sn AIU-1568
442 PAR Sensor LI-190/R Q100421 2015-06-22Lab
441 PAR Sensor LI-190/R Q100420 2015-06-22Lab
440 CO2 probe GMP221 L2058007 2015-06-09Twitchell Alfalfa Bare 0-3% probe
439 CO2 probe GMP221 L2058006 2015-06-09Twitchell Alfalfa Bare 0-3% probe
438 CO2 probe GMP221 L2058005 2015-06-09Twitchell Alfalfa Bare 0-3% probe
437 CO2 probe GMP221 L2058003 2016-01-21Lab Bare 0-3% probe
436 CO2 probe GMM221 L2058002 2015-06-09Twitchell Alfalfa 0-3% = 0-5V = 4-20mA 12VDC board with screw terminals
435 CO2 probe GMM221 L2058001 2015-06-09Twitchell Alfalfa 0-3% = 0-5V = 4-20mA 12VDC board with screw terminals
434 CO2 probe GMM222 L2030064 2015-06-09Twitchell Alfalfa 0-2000ppm = 0-5V = 4-20mA 12VDC board with screw terminals
433 CO2 probe GMM222 L2030063 2015-06-09Twitchell Alfalfa 0-2000ppm = 0-5V = 4-20mA 12VDC board with screw terminals
432 CO2 probe GMM222 L2010070 2016-02-23Vaira 0-1% = 0-5V = 4-20mA 12VDC board with screw terminals
431 CO2 probe GMM222 L2010069 2016-02-23Tonzi 0-1% = 0-5V = 4-20mA 12VDC board with screw terminals
430 CO2 probe GMM222 L2010068 2016-02-23Vaira 0-1% = 0-5V = 4-20mA 12VDC board with screw terminals
429 CO2 probe GMM222 L2010067 2015-04-21Lab 0-1% = 0-5V = 4-20mA 12VDC board with screw terminals
428 Interface 1189PC 000200 2015-05-13Lab was at Sherman
427 Infrared Temperature SI-121 1964 2015-05-06Tonzi Replacing old SI-121 sensor that was traded in. Coefficients: mC2 = 1.19642e5 mC1 = 1.10613e7 mC0 = 1.89441e9 bC2 = 2.67874e3 bC1 = 6.90193e4 bC0 = -1.33937e7
426 Infrared Temperature SI-121 1965 2015-05-06Tonzi Replacing old SA-121 sensor that was traded in. Coefficients: mC2 = 1.08768e5 mC1 = 1.05487e7 mC0 = 1.82939e9 bC2 = 2.63346e3 bC1 = 1.75985e5 bC2 = -4.94396e6
425 PAR Sensor PAR-LITE 060868 2015-04-17Tonzi Tower This is the Ameriflux annually calibrated standard PAR sensor. Calibrated by Ameriflux 2013-03-28: 6.52 uV/(umol/m2s) [153.47 (umol/m2s)/mV]
424 Soil Moisture Probe PRB-K Type #8 000007931AFE 2015-04-09Tonzi
423 Soil Moisture Probe PRB-K Type #8 00000AB5408F 2015-04-02Lab
422 Soil Moisture Probe PRB-K Type #8 00000FEDDAA1 2015-04-02Lab
421 Data Logger CR23X 2303 2015-03-10Twitchell Rice Factory cal 2005-01-07
420 Heat Flux Plate HFP01 10809 2015-04-09Twitchell Rice Factory calibration 2014-10-17, 62.69 uV/(W/m2). Wht = +sig, Grn = -sig, Blk = shield
419 Heat Flux Plate HFP01 10822 2015-04-09Twitchell Rice Factory calibration 2014-10-22, 62.51 uV/(W/m2). Wht = +sig, Grn = -sig, Blk = shield
418 Interface 1189PC 000195 2015-02-13Lab At Tonzi Tower since at least 2008
417 Data Logger CR10X 12213 2014-10-15Lab Found in the east sap flow station at Tonzi. wp 5064 2MB
416 CO2 probe GP-001 GP20140026 2015-08-19Twitchell Alfalfa 0 to 2% range. These probes have an extra 20% bonus to their CO2 analog range. So a 0-2% probe will have a 0-2.4% analog output range.
415 CO2 probe GP-001 GP20140025 2015-06-25Mayberry 0 to 2% range. These probes have an extra 20% bonus to their CO2 analog range. So a 0-2% probe will have a 0-2.4% analog output range.
414 CO2 probe GP-001 GP20140024 2015-06-25Mayberry 0 to 2% range. These probes have an extra 20% bonus to their CO2 analog range. So a 0-2% probe will have a 0-2.4% analog output range.
413 CO2 probe GP-001 GP20140023 2016-04-28Lab 0 to 2% range. These probes have an extra 20% bonus to their CO2 analog range. So a 0-2% probe will have a 0-2.4% analog output range.
412 CO2 probe GP-001 GP20140022 2015-12-08Lab 0 to 4% range. These probes have an extra 20% bonus to their CO2 analog range. So a 0-2% probe will have a 0-2.4% analog output range.
411 CO2 probe GP-001 GP20140021 2015-12-08Lab 0 to 4% range. These probes have an extra 20% bonus to their CO2 analog range. So a 0-2% probe will have a 0-2.4% analog output range.
410 CO2 probe GP-001 GP20140011 2015-06-25Lab 0 to 2% range. Replacement for previous Forerunner probes that were not water proof.
409 CO2 probe GP-001 GP20140010 2015-09-23Disposed 0 to 2% range. Replacement for previous Forerunner probes that were not water proof.
408 CO2 probe GP-001 GP20140009 2015-09-30Lab 0 to 2% range. Replacement for previous Forerunner probes that were not water proof.
407 CO2 probe GP-001ex GP2013ex03 2015-08-19Lab 0 to 3% range. Arrived with forced diffusion chamber and two more probes.
406 CO2 probe GP-001ex GP2013ex02 2014-10-30Twitchell Alfalfa 0 to 3% range. Arrived with forced diffusion chamber and two more probes.
405 CO2 probe GP-001ex GP2013ex01 2014-02-11Disposed 0 to 3% range. Arrived with forced diffusion chamber and two more probes.
404 Forced Diffusion FD Classic FDC-11-13-006 2014-10-03Lab Arrived with three GP-001 probes
403 Spectrometer JAZ-EL350 JAZA2903 2014-10-01Lab 1 spectrometer channel for VIS-NIR, 600 lines blazed at 400nm, 350-1000nm, ILX511b Detector, OFLV-3 filter, L2 lens, 25um slit. calibration data on file. Came with 2m, 400um core fiber, cosine corrector and OceanView software key: KQ7Z-7MT8-EUVJ-GTKI-R7E6-GJFX-MWTA
402 DO Sensor miniDOT 1221 2014-10-09Mayberry
401 DO Sensor miniDOT 1220 2014-10-09
400 DO Sensor miniDOT 1219 2014-10-09
399 Leaf Area Index LAI-2270C PCA-3914 2014-09-23Lab This console came with wand sn PCH-4057 and wand sn PCH-4058
398 Leaf Area Index LAI-2250 PCH-4058 2014-09-23Lab This wand came with wand sn PCH-4057 and console sn PCA-3914
397 Leaf Area Index LAI-2250 PCH-4057 2014-09-23Lab This wand came with wand sn PCH-4058 and console sn PCA-3914
396 Gas Analyzer LI-820 CGA-556 2016-02-23Tonzi Tower
395 Narrow Band SRS-PRI 816903083 2014-09-15Lab 180 degree cosine filters
394 Narrow Band SRS-PRI 759503109 2014-09-15Lab 180 degree cosine filters
393 Interface NL115 13056 2014-09-02Lab
392 Interface NL115 13055 2014-09-02Lab
391 Interface NL115 13054 2014-09-02Lab NULL
390 Interface NL115 13053 2015-12-23Lab
389 Data Logger CR1000 66252 2014-09-02Lab Initial factory calibration done on 2014-06-21
388 Data Logger CR1000 66251 2014-09-02Lab Initial factory calibration done on 2014-06-21
387 Data Logger CR1000 66250 2015-12-23Lab Initial factory calibration done on 2014-06-21
386 Data Logger CR1000 66249 2015-05-06Tonzi Initial factory calibration done on 2014-06-21
385 CO2 probe GMP221 K1340007 2015-06-09Lab 0-3% range
384 CO2 probe GMP221 K1340006 2016-02-23Tonzi 0-3% range
383 CO2 probe GMP221 K1340005 2015-06-09Lab 0-3% range
382 CO2 probe GMP222 K1350103 2016-02-23Vaira 0-1% range
381 CO2 probe GMP222 K1350102 2016-02-23Vaira 0-1% range
380 CO2 probe GMP222 K1350101 2016-02-23Vaira 0-1% range
379 CO2 probe GMP222 K1310104 2016-02-23Tonzi 0-1% range
378 CO2 probe GMP222 K1310103 2016-02-23Vaira 0-1% range
377 CO2 probe GMP222 K1310102 2016-02-23Tonzi 0-1% range
376 DO Sensor CS511 DO-8 2016-04-13Lab
375 Heat Flux Plate HFP01SC 00243 2014-11-25
374 Gas Analyzer LI-7500A 75H-2514 2016-02-11East End Came with AIU-1285, TG1-0357, wash box and assorted cables and hardware.
373 Interface LI-7550 AIU-1285 2016-04-13Mayberry Came with TG1-0357, 75H-2514, wash box and assorted cables and hardware.
372 Gas Analyzer LI-7700 TG1-0357 2016-04-13Mayberry Came with AIU-1285, 75H-2514, wash box and assorted cables and hardware.
371 Interface CFM100 5228 2014-05-19Lost Came with CR1000 sn 25329
370 Data Logger CR1000 25329 2014-05-19Lost Wiring panel sn 21478, came with CFM sn 5228
369 Interface LI-7550 AIU-0915 2014-08-19Returned Borrowed from Ameriflux with GHG system including 7700 sn TG1-0350 and 7500A sn 75H-2339 with wash box and all cables
368 Gas Analyzer LI-7700 TG1-0352 2014-08-19Returned Borrowed from Ameriflux with GHG system including 7500A sn 75H-2339 and 7550 sn 0915 with wash box and all cables
367 Gas Analyzer LI-7500A 75H-2339 2014-08-19 Borrowed from Ameriflux with GHG system including 7700 sn TG1-0350 and 7550 sn 0915 with wash box and all cables
366 Solar Controller PS-15M 12501588 2014-04-29Lab
365 Solar Controller PS-15M 12501584 2014-10-09Lab
364 Water Potential 3005F01 none 2014-02-20Lab Pressure bomb for stem water potential. www.soilmoisture.com
363 LED sensor LED-4chan RYU-01 2014-01-22Tonzi Tower 4 channel LED sensor built by Youngryel Ryu's lab in Korea
359 LED sensor LED-NDVI LED-06 2013-10-08Twitchell Alfalfa This is a home build LED sensor to measure NDVI. This sensor has plastic head boxes and was calibrated on campus against the Ocean Optics.
358 Multiplexer AM16/32A 1164 2014-06-05Lab Removed from the east sap flow station where it was from before 2008 when Joe started working here.
357 Gas Analyzer LI-7700 TG1-0203 2014-02-25Frank This sensor was borrowed from Frank Anderson along with a was box and required cables. It will be deployed on the Corn / Construction tower for a aircraft flight in mid September and maybe returned soon afterwards.
356 LED sensor LED-NDVI LED-05 2013-06-20Mayberry Tule Tower This is a home built LED sensor to measure NDVI. This sensor was plastic head boxes and was calibrated on campus against the Ocean Optics spectrometer.
355 LED sensor LED-NDVI LED-04 2013-07-26Lab This is a home build LED sensor to measure NDVI. This sensor has plastic head boxes and was calibrated on campus against the Ocean Optics.
354 LED sensor LED-NDVI LED-03 2013-06-20Loaned This is a home built LED sensors to measure NDVI. This is the first of a new batch of sensors using plastic boxes for heads and calibrate on campus against the Ocean Optics.
353 LED sensor LED-NDVI LED-02 2015-05-12Lab This is a home built LED sensor to measure NDVI. This sensor was built by Joe Verfaillie.
352 LED sensor LED-NDVI LED-01 2013-06-20Vaira Home built LED sensor to measure NDVI. This is the first on built by Ted Hehn.
351 Data Logger CR10X 35475 2014-07-21Lab Originally in the Handar wind profile system. Wiring panel sn 25361. Last cal date 2003-07-14
350 RH & Temp HMP45AC T2130005 2013-05-01Tonzi Tower Recovered from old equipment from a project of Siyans
349 RH & Temp HMP45AC T1250012 2013-05-01Tonzi Tower Recovered from old equipment from a project of Siyans
348 RH & Temp HMP45AC T0720012 2015-01-21Lab Recovered from old equipment from a project of Siyan
347 RH & Temp HMP45AC W0730035 2013-05-01Tonzi Tower
346 Net Radiometer NR01 1720 2015-04-29Lab Initial factory calibration: Pyranometer Up (mn SR01 sn 2540) 13.71uV/Wm-2, Pyranometer Down (mn SR01 sn 2541) 13.36uV/Wm-2, Pyrgeometer Up (mn IR01 sn 2533) 10.30uV/Wm-2. Pyrgeometer Down (mn IR01 sn 2534) 10.84uV/Wm-2
345 Diffuse Radiation BF5 25/03 2013-04-10Tonzi Tower Initial factory calibration 2012-06-19
344 Heat Flux Plate HP-127-1.0-1.3-71P P05 2013-02-08Vaira Potted (water proof) peltier chip
343 Heat Flux Plate HP-127-1.0-1.3-71P P04 2015-12-02Vaira Potted (water proof) peltier chip
342 Heat Flux Plate HP-127-1.0-1.3-71P P03 2015-12-02Vaira Potted (water proof) peltier chip
341 Heat Flux Plate HP-127-1.0-1.3-71P P02 2013-02-08Vaira Potted (water proof) peltier chip
340 Heat Flux Plate HP-127-1.0-1.3-71P P01 2016-04-05Vaira Potted (water proof) peltier chip
339 Multiplexer AM16/32 1237 2013-03-13Tonzi Tower Was used in the C1 sap flow station since before Sept 2008 when Joe started work here.
338 Water Level CS451 20010046 2012-11-29Mayberry Tule Tower
337 Anemometer WM 1590 124215 2016-01-12Lab Spare sonic for DWR project.
336 Anemometer SATI-3K 000603 2013-01-22Returned Borrowed from Robin in Allen Glodsteins lab for an inter-comparison
335 Anemometer WM 1590 120908 2016-01-12Lab 4x14bit analog out, 20Hz, Firmware version 2329-114
334 Anemometer WMP 1352 000021 2015-04-29Lab Firmware version 2.03
333 Data Logger CR1000 50890 2015-01-21Tonzi Tower Initial factory calibration 2012-09-28
332 Data Logger CR1000 50889 2015-01-21Tonzi Floor Initial factory calibration 2012-09-28
331 Interface NL115 9775 2012-10-09Tonzi Tower
330 Interface NL115 9774 2013-11-13Lab
329 Interface LI-7550 AIU-0614 2016-04-11Lab Came with LI7700 sn TG1-0211 and LI7540 sn 75H-2150. Pressure sensor snPX-2701: A0=57.236, A1=15.171
328 Interface LI-7550 AIU-0397 2016-04-13East End Arrived with LI-7700 sn TG1-0155.
327 Gas Analyzer LI-7700 TG1-0141 2012-08-06Factory This 7700 is on loan to us from Licor while our 7700 sn TG1-0155 is being repaired for spar alignment issues.
326 Interface CFM100 4994 2012-08-22Vaira
325 Net Radiometer NR-LITE 990354 2012-06-14Tonzi Tram Initial factory calibration 12.9 uV/(W/m2) 1999-07-29
324 PAR Sensor PAR-LITE 030381 2012-06-14Tonzi Tram Initial factory calibration 5.32 uV/(umol/m2/s)
323 PAR Sensor PAR-LITE 030380 2012-06-14Tonzi Tram Initial factory calibration 5.31 uV/(umol/m2/s)
322 Interface 1189PC 000181 2012-06-06Lab Last used at Twitchell
321 CO2 Transmitter GMB220 GMT-H1410158 2012-07-26Mayberry Came with probe GMP221 sn H0960006
320 CO2 probe GMP221 H0960006 2013-01-04Disposed Came with cricuit board GMB220 sn H1410158
319 CO2 Transmitter GMB220 GMT-H1410159 2012-07-26Mayberry Came with probe GMP222 sn H1630066
318 CO2 probe GMP222 H1630066 2015-06-09Lab Came with circuit board GMB220ACB sn H1410159.
317 CO2 probe GMP222 H0630070 2013-10-22Disposed 0-1% probe. Factory calibrated on 2012-04-17. Replaces broken probe sn X3830001.
316 CO2 probe GMP221 H1310008 2014-02-25Disposed 0-3% probe. Factory calibrated on 2012-04-17. Replaces broken probe sn Y4110008.
315 CO2 probe GMP221 H1310020 2013-07-23Disposed 0-2% probe. Factory calibrated on 2012-04-17. Replaces broken probe sn X1520002.
314 Interface CFM100 4993 2015-05-07Lab
313 Data Logger CR1000 23865 2015-01-21Vaira Initial factory calibration 2009-03-30, wiring panel sn 20447.
312 Data Logger CR23X 2071 2014-08-29Lab Borrowed from the Goldstein lab for use at Mayberry.
311 Pump N940-5APE.W 03387648 2015-05-12Lab
310 Anemometer WMP 1352 000019 2015-04-29Tonzi Tower
309 Soil Moisture Probe ML2x 377/010 2016-05-12Twitchell Alfalfa
308 Soil Moisture Probe ML2x 377/009 2013-05-24Twitchell Alfalfa
307 Soil Moisture Probe ML2x 377/008 2016-05-17Twitchell Alfalfa
305 Anemometer WM 1590 120907 2012-05-02West Pond 4x14bit analog out, 20Hz, Firmware version 2329-114
304 Anemometer WM 1590 120906 2012-05-07Twitchell Rice 4x14bit analog out, 20Hz, Firmware version 2329-114
303 Water Level CS450 20010770 2012-11-29DWR Corn 0-2.9psi (20kPa) 0.1% accuracy
302 Water Level CS450 20010769 2012-04-17West Pond 0-2.9psi (20kPa) 0.1% accuracy
301 Net Radiometer NR01 1570 2013-05-24Twitchell Alfalfa Initial factory calibration: Pyranometer Up (mn SR01 sn 2225) 13.33uV/Wm-2, Pyranometer Down (mn SR01 sn 2226) 15.00uV/Wm-2, Pyrgeometer Up (mn IR01 sn 2208) 10.87uV/Wm-2. Pyrgeometer Down (mn IR01 sn 2209) 10.47uV/Wm-2.
300 Net Radiometer NR01 1457 2012-04-17West Pond Initial factory calibration: Pyranometer Up (mn SR01 sn 1963) 13.8uV/Wm-2, Pyranometer Down (mn SR01 sn 1964) 13.0uV/Wm-2, Pyrgeometer Up (mn IR01 sn 1952) 9.2uV/Wm-2. Pyrgeometer Down (mn IR01 sn 1953) 9.8uV/Wm-2.
299 Net Radiometer NR01 1454 2015-01-20East End Initial factory calibration: Pyranometer Up (mn SR01 sn 1957) 15.3uV/Wm-2, Pyranometer Down (mn SR01 sn 1958) 13.6uV/Wm-2, Pyrgeometer Up (mn IR01 sn 1946) 9.0uV/Wm-2. Pyrgeometer Down (mn IR01 sn 1947) 9.4uV/Wm-2.
298 Heat Flux Plate HFP01 6649 2015-01-20East End Initial factory calibration 62.0 uV/Wm-2
297 Heat Flux Plate HFP01 6492 2013-04-26Disposed Initial factory calibration 61.3 uV/Wm-2
296 Heat Flux Plate HFP01 6491 2016-05-17Twitchell Alfalfa Initial factory calibration 62.0 uV/Wm-2
295 Heat Flux Plate HFP01 6499 2015-09-30Twitchell Rice Initial factory calibration 62.6 uV/Wm-2
294 Heat Flux Plate HFP01 6343 2014-08-13Twitchell Alfalfa Initial factory calibration 62.0 uV/Wm-2
293 Heat Flux Plate HFP01 6498 2016-05-17Twitchell Alfalfa Initial factory calibration 61.0 uV/Wm-2
292 Heat Flux Plate HFP01 6342 2016-05-12Twitchell Alfalfa Initial factory calibration 61.3 uV/Wm-2
291 Precipitation TR-525M 50229-112 2015-01-20East End 0.1mm tip, 9.6 inch orifice
290 DO Sensor DO6400/T DO-07 2014-01-28Lab Campbell part number CS511
289 DO Sensor DO6400/T DO-06 2014-04-10East End Campbell part number CS511
288 DO Sensor DO6400/T DO-05 2012-09-06West Pond Campbell part number CS511
287 DO Sensor DO6400/T DO-04 2014-01-14Lab Campbell part number CS511.
286 Interface A547 3586 2012-04-17West Pond Interface for CS547A conductivity sensor
285 Interface A547 3585 2012-03-12Lab Interface for CS547A conductivity sensor
284 Conductivity Sensor CS547A 6097 2016-04-13Lab Needs interface module modle no A547
283 Conductivity Sensor CS547A 6096 2012-04-17West Pond Needs interface module module no A547. Calibration constants: Rcable = 20; Kc = 1.411
282 Barometer PTB110 H0160093 2014-06-12Twitchell Rice NULL
281 Barometer PTB110 H0160069 2015-01-20East End
280 Barometer PTB110 H0160076 2012-04-17West Pond 500-1100hPa range
279 RH & Temp HMP60 G4540025 2012-04-17West Pond
278 RH & Temp HMP60 G4540023 2015-01-20East End
277 RH & Temp HMP60 G4540021 2013-05-24Twitchell Alfalfa
276 Multiplexer AM25T 6769 2015-01-20East End
275 Multiplexer AM25T 6768 2012-04-17West Pond
274 Multiplexer AM25T 6767 2016-03-24Twitchell Alfalfa
273 Multiplexer AM16/32B 11663 2015-01-20East End
272 Multiplexer AM16/32B 11662 2013-05-24Twitchell Alfalfa
271 Multiplexer AM16/32B 11661 2012-04-17West Pond
270 Data Logger CR1000 47110 2012-10-18East End Wiring panel No. 40322
269 Data Logger CR1000 47109 2015-01-20West Pond Wiring panel No. 40324
268 Data Logger CR1000 47108 2013-05-24Twitchell Alfalfa Wiring panel No. 40323
267 PAR Sensor PQS 1 PQS110341 2012-04-17West Pond Initial factory calibration 4.80uV/(umol/2.m2)
266 PAR Sensor PQS 1 PQS110340 2015-01-20East End Initial factory calibration4.61uV/(umol/2.m2)
265 PAR Sensor PQS 1 PQS110339 2013-05-24Twitchell Alfalfa Initial factory calibration 4.77uV/(umol/2.m2)
264 PAR Sensor PQS 1 PQS110338 2013-05-24Twitchell Alfalfa Initial factory calibration 4.50uV/(umol/2.m2)
263 PAR Sensor PQS 1 PQS110337 2015-01-20East End Initial factory calibration 4.51uV/(umol/2.m2)
262 PAR Sensor PQS 1 PQS110336 2012-04-17West Pond Initial factory calibration 4.70uV/(umol/2.m2)
261 Interface LI-7550 AIU-0674 2016-04-13Twitchell Alfalfa Part of LI-7500a system with LI-7550 sn AIU-0674
260 Gas Analyzer LI-7500A 75H-2180 2016-02-11Twitchell Alfalfa Part of LI-7500a system with LI-7500A sn 75H-2180
259 Interface LI-7550 AIU-0650 2016-04-13Twitchell Rice Part of GHG1 system with LI-7700 sn TG1-0223 and LI-7500A sn 75H-2176
258 Gas Analyzer LI-7500A 75H-2176 2016-02-25Twitchell Rice Part of GHG1 system with LI-7550 sn AIU-0650 and LI-7700 sn TG1-0223
257 Gas Analyzer LI-7700 TG1-0223 2014-03-07West Pond Part of GHG1 system with LI-7550 sn AIU-0650 and LI-7500A sn 75H-2176
256 Interface LI-7550 AIU-0666 2016-04-13West Pond Part of GHG1 system with LI-7700 sn TG1-0224 and LI-7500A sn 75H-2182
255 Gas Analyzer LI-7500A 75H-2182 2016-04-13Mayberry Part of GHG1 system with LI-7550 sn AIU-0666 and LI-7700 sn TG1-0224
254 Gas Analyzer LI-7700 TG1-0224 2015-02-05Lab Part of GHG1 system with LI-7550 sn AIU-0666 and LI-7500A sn 75H-2182
253 Solar Controller PS-30M 11400072 2014-08-07Lab 12/24V, 30A, LCD
252 Solar Controller PS-30M 11400073 2013-11-25East End 12/24V, 30A, LCD
251 Solar Controller PS-30M 11400077 2012-05-02West Pond 12/24V, 30A, LCD
250 Solar Controller PS-30M 11400080 2013-05-24Twitchell Alfalfa 12/24V, 30A, LCD
249 Solar Panel KD140SX-UFBS 11ZV0M1127 2015-12-08East End 140W, 12V
248 Solar Panel KD140SX-UFBS 11ZV0M0862 2012-03-12Lab 140W, 12V
247 Solar Panel KD140SX-UFBS 11ZV0M0859 2013-11-25East End 140W, 12V
246 Solar Panel KD140SX-UFBS 11ZV0M0860 2013-10-24Twitchell Alfalfa 140W, 12V
245 Solar Panel KD140SX-UFBS 11ZV0M0861 2013-05-24Twitchell Alfalfa 140W, 12V
244 Solar Panel KD140SX-UFBS 11ZV0M0830 2013-11-25East End 140W, 12V
243 Solar Panel KD140SX-UFBS 11ZV0M0855 2012-05-02West Pond 140W, 12V
242 Solar Panel KD140SX-UFBS 11ZV0M0856 2012-05-02West Pond 140W, 12V
241 Solar Panel KD140SX-UFBS 11ZV0M0835 2012-04-24Twitchell Rice 140W, 12V
240 Solar Panel KD140SX-UFBS 11ZV0M0836 2012-05-02West Pond 140W, 12V
239 Solar Panel KD140SX-UFBS 11ZV0M0829 2012-04-24Twitchell Rice 140W, 12V
238 Solar Panel KD140SX-UFBS 11ZV0M0828 2012-04-24Twitchell Rice 140W, 12V
237 Data Logger CR10X 31308 2015-05-12Lab Wiring panel sn 21292. This data logger is installed in the radiation tram.
236 Anemometer 425A 0854 2015-04-08Tonzi Bought from Handar for 1650.00 with four others serial numbers: 0843, 0846, 0852 and 0860. This one has been the lab standard and was stored on the shelf in H105.
235 Anemometer 425A 0843 2015-12-23Lab Bought from Handar for 1650.00 with four others serial numbers: 0854, 0846, 0852 and 0860.
234 Anemometer 425A 0839 2015-12-23Lab Bought from Handar for 1650.00.
233 Anemometer 425A 0846 2015-12-23Lab Bought from Handar for 1650.00 with four others serial numbers: 0843, 0854, 0852 and 0860.
232 Anemometer 425A 0860 2015-04-29Lab Bought from Handar for 1650.00 with four others serial numbers: 0843, 0846, 0852 and 0854.
231 Anemometer 425A 0852 2015-12-23Lab Bought from Handar for 1650.00 with four others serial numbers: 0843, 0846, 0854 and 0860.
230 Gas Analyzer LI-7500A 75H-2150 2016-04-13Lab Came with LI-7700 sn TG1-211 and LI-7550 sn AIU-614. CO2 Calibration: A=1.62437E2, B=1.12281e3, C=5.75825e7, D=-2.00715e10, E=2.70770e12, XS=0.0006, Z=-3.90000e-3. H2O Calibration: A=6.13341e3, B=4.15613e6, C=2.15772e8, XS=-0.0016, Z=1.86000e-2.
228 Gas Analyzer LI-7700 TG1-211 2015-03-24Twitchell Rice Came with LI7550 sn AIU-614 and LI7540 sn 75H-2150. Settings: lasermoddepth=13265, laserstarttemp=11.4, blockstarttemp=30, blockstarttemplowrange=5, rssidropthresh=0, pzero=57.71, pspan=15.31, samplegain=0, refgain=0, mirrorpos=0, offset1=32768, delta1=77, offset2=0, delta2=0, dither=30000, sampledcoffset=420, sampleacoffset=-1000, sampleopticaloffset=0.
227 Multiplexer AM416 13961 2011-11-07Loaned
226 Flowmeter 32707-30 CP6295 2011-11-04Lab 0-1000ml/min
225 Flowmeter 32707-36 CP5219 2011-11-04Lab 0-10L/min
224 Gas Analyzer LI-7500 1653 2011-11-03Returned Borrowed from Frank for an emergency replacement at Varia
223 Anemometer WMP 1352 000023 2011-10-05Tonzi Floor
222 Incubator I-3711v1 90g3463.1 2011-10-05Hilgard 216
221 Dew Point Generator LI-610 DPG478B 2011-10-05Lab Last calibration July 1999
220 Leaf Area Index LI-3100 LAM-1203 2011-10-05Lab
219 Leaf Area Index LAI-2000 PCA-0846 2011-10-11Lab Borrowed from Peng Gong. LAI-2050 Head sn PCH-0876
218 Gas Analyzer LI-6400 PSC-0785 2016-04-04Lab Portable Photosynthesis System. Leaf Chamber Fluorometer head model 6400-40 serial number LCF-0464
217 Data Logger CR23X 2143 2012-07-26Mayberry Tule Tower Found in Campbell enclosure in the lab.
216 PAR Sensor Quantum Q29881 2011-06-20unknown
215 PAR Sensor Quantum Q29882 2012-05-10Lab Original calibration 2011-07-10. Mult: -148.81, tcoff: 0.0036, Units (umol/m2/s)/uA
214 Gas Analyzer FGGA 09-0011 2013-08-28Lab Borrowed from Frank.
213 Moisture Point PRB-K Type #8 00000A6D72F5 2011-05-11Tonzi North most (#C) of north-south transect outside west edge of soil co2 profile cow fence.
212 Moisture Point PRB-K Type #8 00000A3D04E8 2011-05-11Tonzi Middle (#B) of north-south transect outside west edge of soil co2 profile cow fence.
211 Moisture Point PRB-K Type #8 00000A6D882B 2011-05-11Tonzi Southern most (#A) of north-south transect outside west edge of soil co2 profile cow fence.
210 Moisture Point PRB-K Type #8 0000097A432E 2011-05-11Tonzi Fourth closest to big oak tree. Soil profile transect #4.
209 Moisture Point PRB-K Type #8 0000097A3C6E 2011-05-11Tonzi Third closest to big oak tree. Soil profile transect #3.
208 Moisture Point PRB-K Type #8 0000097A3B40 2011-05-11Tonzi Second closest to big oak tree. Soil profile transect #2.
207 Moisture Point PRB-K Type #8 0000097A4AAA 2011-05-11Tonzi Closest to big oak tree. Soil profile transec #1
206 Moisture Point PRB-K Type #8 000000402FF3 2011-05-11Tonzi Near water potential spot between floor and co2 profile.
205 Moisture Point PRB-K Type #8 000000402165 2011-05-11Tonzi Near floor tower under canopy.
204 Moisture Point PRB-K Type #8 000007933FDE 2011-05-11Vaira Installed near the eddy tower.
203 Barometer PTB110 E1330045 2015-05-21Mayberry
202 Precipitation TE525MM-L20 49187-109 2011-11-02Twitchell Rice
201 Water Level CS450 20010026 2015-05-12Lab NULL
200 Anemometer WMP 1590 074417 2012-04-24Mayberry 20Hz model
199 Infrared Temperature SI-121 1282 2015-04-20Disposed
198 Infrared Temperature SI-121 1281 2015-04-20Disposed
197 Interface 1189PC 000196 2011-04-18Lab Power and Communication Interface (PCI)
196 Net Radiometer CNR1 990181 2015-05-12Lab Initial calibrations CG_Up = 9.66, CM_Up = 9.94, CG_Dn = 9.58, CM_Dn = 9.96 uV/(W/m2)
195 Net Radiometer CNR1 020476 2015-04-29Tonzi Tower Initial factory calibration 10.27 uV/(W/m2)
194 Multiplexer AM16/32B 3052 2011-03-23Mayberry Tule Tower NULL
193 Battery Bank BB-Fab BB-TT 2011-03-14Tonzi Tower Solar power battery bank supporting the tower at Tonzi.
192 Data Logger CR10X 36771 2013-11-04Lab Wiring panel 10800
191 PAR Sensor PAR-LITE 10162 2011-03-01Mayberry Initial factory calibration 5.27 uV/(umol/m2/s)
190 Pyranometer CMP 11 996981 2011-02-17Tonzi Tower Initial factory calibration: 5.03 uV/(W/m2)
189 Net Radiometer NR-LITE 990351 2011-02-17Tonzi Tower Initial factory calibration: 13.9 uV/(W/m2)
188 PAR Sensor PAR-LITE 030382 2011-02-17Tonzi Tower Facing downward measuring reflected PAR. Initial factory calibration: 5.29 uV/(umol/m2/s)
187 PAR Sensor PAR-LITE 990017 2011-02-17Tonzi Tower Facing up measuring incoming PAR. Initial factory calibration 5.16 uV/(umol/m2/s)
186 Gas Analyzer LI-800 AKC-0479 2015-05-04Lab Used for CO2 profile system.
185 Data Logger CR10X 20138 2011-02-17Tonzi Tower Wiring panel # 10203. Used for the CO2 profile system. Last cal 10-18-1999.
184 Data Logger CR10X 19481 2011-02-17Tonzi Floor Wiring panel #10202. Used for soil temperatures near the tower. Calibration in 1999.
183 Barometer PTB101B U2950008 2011-02-17Tonzi Floor With soil temperature near tower.
182 Multiplexer AM25T 2425 2011-02-17Tonzi Floor Soil temperature near the tower.
181 Soil Moisture Probe ML2x 31/016 2011-02-17Tonzi Floor
180 Soil Moisture Probe ML2x 31/085 2011-02-17Tonzi Floor
179 Soil Moisture Probe ML2x 54/009 2011-02-17Tonzi Floor
178 Soil Moisture Probe ML2x 31/092 2011-02-17Tonzi Floor
177 Soil Moisture Probe ML2x 31/033 2011-02-17Tonzi Floor
176 Soil Moisture Probe ML2x 31/100 2011-02-17Tonzi Floor
175 Soil Moisture Probe ML2x 54/004 2011-02-17Tonzi Floor
174 Data Logger CR23X 2302 2011-02-17Tonzi Floor Soil moisture data logger near tower.
172 Gas Analyzer LI-7700 TG1-0155 2015-02-05East End Arrived with LI7550 sn AIU-397. Dead on arrival returned for repair. IPV6 = fe80:0000:021c:94ff:fe04:04fe IPV4 = 169.254.125.82
171 CO2 Transmitter GMT222 GMT-G0230062 2011-01-24Lab
170 CO2 Transmitter GMT222 GMT-G0230061 2011-01-24Lab
169 CO2 Transmitter GMT221 GMT-G0150037 2011-01-24Lab
168 CO2 Transmitter GMT221 GMT-G0150036 2011-01-24Lab
167 CO2 Transmitter GMT221 GMT-G0150035 2011-01-24Lab
166 CO2 Transmitter GMT221 GMT-G0150034 2011-01-24Lab
165 CO2 Transmitter GMT221 GMT-F4960020 2011-01-24Lab
164 CO2 Transmitter GMT221 GMT-F4960019 2011-01-24Lab
163 CO2 Transmitter GMT221 GMT-F4960018 2011-01-24Lab
162 CO2 probe GMT222 G0230062 2016-02-23Vaira 0-1% range
161 CO2 probe GMT222 G0230061 2015-11-03Lab 0-1% range
160 CO2 probe GMT221 G0150037 2015-06-09Lab 0-3% range
159 CO2 probe GMT221 G0150036 2016-02-23Tonzi 0-3% range
158 CO2 probe GMT221 G0150035 2016-02-23Tonzi 0-3% range
157 CO2 probe GMT221 G0150034 2014-01-23Sherman 0-1% range
156 CO2 probe GMT221 F4960020 2016-02-23Tonzi 0-3% range
155 CO2 probe GMT221 F4960019 2014-01-24Lab 0-3% range
154 CO2 probe GMT221 F4960018 2016-02-11Twitchell Alfalfa 0-3% range
153 Data Logger CR10X 20139 2011-07-21Lab Wiring panel sn 10801
152 Camera WSCA04-00106 GU00800932 2011-01-13Lab Recieved as replacement for broken one.
151 Camera WSCA04-00106 GU91002363 2011-01-13Disposed
150 Interface A547 3270 2016-04-13Lab Data logger interface for CS547A conductivity sensor.
149 Conductivity Sensor CS547A 5688 2016-04-28Mayberry Requires A547 interface to connect to data logger. Cell constant Kc = 1.343
148 DO Sensor CS511 DO-3 2011-03-01Mayberry No serial number, but 5010 is etched in the plastic casing - serial number DO-3 assigned. Output is 0 to 100% O2 = <2mV to 33mV. PTFE membrane. This is Sensorex’s Model DO6400/T.
147 DO Sensor CS511 DO-2 2012-09-27Lab No serial number, but 5010 is etched in the plastic casing - serial number DO-2 assigned. Output is 0 to 100% O2 = <2mV to 33mV. PTFE membrane. This is Sensorex’s Model DO6400/T.
146 pH Sensor CS525 pH-1 2011-01-27lab No serial number - serial number pH-1 assigned. Cable labeled with WO# 106678 and SO# 251264. Sensor based on SENTRON's high-tech Ion Sensitive Field Effect Transistor (ISFET) semi-conductor and includes a silver/silverchloride - potassium chloride reference system
145 Barometer 278 4505052 2015-08-05Disposed Part number 2781600MA1B2YT1
144 Interface NL115 6761 2013-10-18Tonzi Floor
143 Interface NL115 6763 2015-11-11Twitchell Alfalfa
142 Data Logger CR1000 38212 2015-08-19Lab Wiring panel sn 31704. Original cal 03 Jan 11.
141 Data Logger CR1000 38211 2014-05-06Lab Wiring panel sn 31705. Original cal 03 Jan 11.
140 CO2 Transmitter GMT222 GMT-Y4110010 2010-10-28Lab
139 Water Level PDCR 1836-8388 2421703 2012-10-25Lab 5psi range. Inital factory calibration 0.98 (mv/V)/psi calibrated on 10/6/2006
138 Gas Analyzer LI-7700 TG1-0100 2011-03-12Factory LI7700 open-path methane sensor on loan to us from Licor.
137 Moisture Point PRB-K Type #8 00000128B7B90 2010-12-09Vaira Near cow fence gate.
136 Moisture Point PRB-K Type #8 00000128BDDE8 2010-11-12Vaira Ranch Biomass fence
135 Moisture Point PRB-K Type #8 00000128B97F3 2010-11-12Vaira Ranch Near solar panels
134 Moisture Point PRB-K Type #8 00000128B8072 2015-04-08Tonzi NULL
133 Anemometer WMP 1352 000022 2011-08-29Lab
132 Scale Explorer E1B120 E3481119463770 2010-11-16Lab
131 Soil Moisture Probe ML2x 54/001 2012-07-26Lab
130 Soil Moisture Probe ML2x 139/052 2015-05-12Lab
128 Net Radiometer NR-LITE 990352 2010-09-10Twitchell Rice Initial factory calibration 14.2uV/(W/m2)
127 PAR Sensor PAR-LITE 050597 2010-09-10Twitchell Rice Facing up measuring incoming PAR. Initial factory calibration 5.35 uV/(uE/m2/s)
126 PAR Sensor PAR-LITE 050596 2010-09-10Twitchell Rice Facing down measuring reflected PAR. Initial factory calibration 5.25 uV/(uE/m2/s)
125 Pyranometer CM11 996985 2015-03-10Twitchell Rice Inital factory calibration 4.90 uV/(W/m2)
124 RH & Temp HMP45AC U3030046 2013-08-28Twitchell Rice NULL
123 Anemometer WMP 1352 000024 2015-07-20Lab
122 Leaf Area Index LAI-2050 PCA-1546 2011-09-27Lab Sensor head from LAI-2000 sn PCA-1478
121 Leaf Area Index LAI-2000 PCA-1478 2011-09-27Lab Logger for LAI-2050 head sn PCA-1546
120 DO Sensor CS511 DO-1 2012-09-06Lab No serial number, but 2610 is etched in the plastic casing - serial number DO-1 assigned. Output is 0 to 100% O2 = <2mV to 33mV. PTFE membrane. This is Sensorex’s Model DO6400/T.
119 Gas Analyzer LI-6262 IRG3-1079 2013-05-08Lab
118 Scroll Pump ESDP30A 973071056 2010-07-23Disposed Also identified with motor sn M728020
117 Scroll Pump ISP-500C SV1864 2010-07-20Factory Also indtified with motor serial number 6U03951
116 Scroll Pump ESDP30A 983071037 2010-07-23Factory This pump is also identified as a GVSP30 with serial number CF037 and sn EN12426862
115 Scroll Pump GVSP30 DG002 2013-04-05Lab This pump has four serial numbers on it: End cap: 043071002 Side Plate: DG002 Side Sticker: 044012498 Motor Plate: 84010040551
114 Moisture Point PR K Type 8 00000FED7C67 2010-09-03Disposed
113 Moisture Point PRB-K Type #8 000000A6D8356 2010-09-03Disposed
112 Moisture Point PR K Type 8 00000FED8688 2010-09-03Disposed
111 Moisture Point PRB-K Type #8 000000573FAA 2010-09-03Disposed
110 Moisture Point MP-917 2001-202 2010-06-15Lab
109 Heat Flux Plate HFP01SC 00068 2010-06-15Tonzi Floor Initial factory calibration: 61.1 uV/W/m2
108 Heat Flux Plate HFP01SC 00067 2013-04-24Tonzi Self calibrating, Initial factory calibration: 58.4 uV/W/m2
107 Heat Flux Plate HFP01 000144 2011-11-30Lab Initial factory calibration: 59.5 uV/W/m2. Located near the Tower.
106 Heat Flux Plate HFP01 000142 2010-06-15unknown
105 Heat Flux Plate HFP01 000141 2013-04-24Tonzi Initial factory calibration: 59.0 uV/W/m2
104 Heat Flux Plate HFP01 000140 2010-06-15Tonzi Floor Initial factory calibration: 59.3 uV/W/m2. Located near the Tower.
103 Heat Flux Plate HFP01 000139 2012-11-07Tonzi Initial factory calibration: 59.3 uV/W/m2. Located near the Tower.
102 Heat Flux Plate HFP01 000138 2010-06-15Tonzi Floor Initial factory calibration: 58.9 uV/W/m2. Located near the Tower.
101 Heat Flux Plate HFP01 000137 2015-05-12Lab
100 Heat Flux Plate HFP01SC 00246 2015-09-11Lab
99 Heat Flux Plate HFP01SC 00244 2015-01-20East End
98 Heat Flux Plate HFP01 002211 2012-09-06 Initial factory calibration 63.1 uV/(w/m2)
97 Multiplexer AM416 14049 2011-02-03Lab
96 Data Logger CR10X 38347 2010-09-22Disposed
95 Data Logger CR10X 25799 2011-01-28Lab
94 RH & Temp HMP45A W0510026 2010-04-16Tonzi Floor
93 PAR Sensor PAR-LITE 010163 2015-03-05Mayberry Initial factory calibration 5.32 uV/umol/s.m2
92 PAR Sensor PAR-LITE 010161 2011-03-01Mayberry Initial factory calibration 5.27uV/umol/s.m2
91 Net Radiometer NR-LITE 990350 2011-03-01Mayberry Initial Factory calibration 13.5uV/W/m2
90 CO2 Transmitter GMT221 GMT-F0810120 2010-03-19Lab 0-2% CO2, H0N0B0A1A0A, Special order - no probe.
89 CO2 Transmitter GMT221 GMT-F0810119 2010-03-19Lab 0-2% CO2, H0N0B0A1A0A, Special order - no probe.
88 CO2 Transmitter GMT221 GMT-F0810118 2010-03-19Lab 0-2% CO2, H0N0B0A1A0A, Special order - no probe.
87 CO2 Transmitter GMT221 GMT-F0810117 2010-03-19Lab 0-2% CO2, H0N0B0A1A0A, Special order - no probe.
86 CO2 Transmitter GMT221 GMT-F0810116 2010-03-19Lab 0-2% CO2, H0N0B0A1A0A, Special order - no probe.
85 RH & Temp HMP45AC U3030032 2013-08-28Lab
84 Gas Analyzer LI-7500 0073 2016-05-10Vaira
83 Gas Analyzer LI-7500 0418 2016-05-10Lab
82 Gas Analyzer FGGA 09-0012 2010-01-14Twitchell Rice
81 CO2 probe GMP222 Z2720012 2016-02-23Tonzi 0-1% range
80 CO2 probe GMP222 Z2720011 2015-06-09Lab 0-1% range
79 CO2 probe GMP222 X5050014 2015-11-03Lab 0-1% range
78 CO2 probe GMP222 Z2720013 2016-02-04Lab 0-1% range
77 CO2 probe GMP222 X1920001 2014-01-24Lab 0-1% range
76 CO2 probe GMP222 Z2720014 2016-02-04Lab 0-1% range
75 CO2 probe GMP222 X4840007 2014-12-09Tonzi 0-1% range
74 CO2 probe GMP222 X3830001 2012-05-02Disposed 0-1% range
73 Gas Analyzer FGGA 09-0010 2014-04-22Returned NULL
72 Pump MPU 2096-N86-11.07 1/1062114 2010-02-17Lab
71 Pump MPU 2096-N86-11.07 1/1062115 2010-02-10Lab
70 Pump UN86 KNDC 1/1166012 2010-02-10Lab
69 Data Logger CR10X 19482 2010-02-17Lab
68 Data Logger CR10X 20140 2012-05-02Lab Wiring panel sn 10802
67 Gas Analyzer LI-7500A 1594 2016-02-25West Pond Originally a LI-7500 converted to a LI-7500A on 2015-11-10
65 Multiplexer AM416 14048 2014-08-07Lab
64 Data Logger CR10X 35474 2013-05-24Twitchell Alfalfa wiring panel sn 16047
63 Gas Analyzer FMA RMT-200 05-0010 2014-01-10Lab NULL
62 Gas Analyzer FMA RMT-200 08-0114 2015-05-12Lab Labeled on front as "LGR 2"
61 Soil Moisture Probe ML2x 64/068 2015-09-09Disposed
60 Soil Moisture Probe ML2x 70/002 2015-09-09Disposed
59 Soil Moisture Probe ML2x 70/020 2013-12-06Lab
58 Heat Flux Plate HFP01SC 00245 2015-05-12Lab
57 Heat Flux Plate HFP01 001604 2015-05-12Lab Initial Factory calibration 62.3 uV/W/m2
56 Data Logger CR1000 4190 2015-06-09Twitchell Alfalfa wiring panel sn 4017
55 Precipitation TR-5251 40415-1006 2015-06-25Mayberry NULL
54 Net Radiometer NR-LITE 021029 2015-05-12Lab
52 PAR Sensor PAR-LITE 040411 2015-10-15Twitchell Alfalfa Cal coefficient 5.66
51 PAR Sensor PAR-LITE 040412 2015-05-12Lab cal coefficient 5.58
50 PAR Sensor PAR-LITE 010164 2015-05-12Lab
49 RH & Temp HMP45AC W0730036 2015-05-12Lab
48 Anemometer WMP 1352 000020 2015-05-12Lab
47 Multiplexer AM25T 2424 2011-03-01Mayberry Tule Tower
46 Data Logger CR10X 31307 2011-06-18Siyan Recording diffuse radiation.
45 Multiplexer AM25T 4852 2015-09-08Lab
44 Barometer PTB101B B0310006 2015-07-24Lab
43 Multiplexer AM16/32 1238 2015-05-12Lab
42 Data Logger CR10X 47253 2015-05-12Lab
41 Spectrometer USB2000-VIS-NIR USB2G4461 2014-11-24
40 Precipitation TR-525I-R1 24875-999 2010-09-07Lab
39 Pyranometer CMP 11 996980 2012-07-10Lab Initial factory calibration 5.19 uV/(W/m2)
38 Net Radiometer NR-LITE 990353 2010-01-13Vaira Tower
37 PAR Sensor PAR-LITE 990025 2010-01-13Vaira Tower
36 PAR Sensor PAR-LITE 990031 2010-01-13Vaira Tower
35 Barometer PTB101B U3220015 2010-01-13Vaira Tower
34 Multiplexer AM16/32 6265 2010-01-13Vaira Tower
33 Net Radiometer CNR1 071421 2010-01-13Vaira Tower Initial factory calibration 10.15 uV/(W/m2).
32 RH & Temp HMP45AC W073003 2010-01-13Vaira Tower
31 Data Logger CR23X 2299 2010-01-11Vaira Tower
30 Diffuse Radiation BF3 26/8 2016-04-05Vaira
29 Soil Moisture Probe ML2x 64/072 2010-01-11Vaira
24 Heat Flux Plate HFP01 001603 2012-11-07Vaira
23 Heat Flux Plate HFP01 000143 2010-01-11Vaira
22 Heat Flux Plate HFP01 001605 2010-01-11Vaira
21 Multiplexer AM25T 3838 2010-01-11Vaira
20 Gas Analyzer LI-7500 0976 2016-05-10Lab
19 Anemometer WMP 1352 000028 2010-01-11Vaira Tower
18 RH & Temp HMP45A U2120013 2012-04-24Factory
17 Net Radiometer NR-LITE 041556 2011-03-01Mayberry Tule Tower Initial factory calibration 14.2uV/W/m2
16 Gas Analyzer LI-7500 0041 2016-05-10Tonzi Tower
14 RH & Temp HMP45AC U3030041 2015-01-21Tonzi Tower
13 CO2 probe GMP221 X1520002 2012-05-02Disposed 0-1% range
12 CO2 probe GMP221 Y1720006 2014-01-24Lab 0-2% range
11 CO2 probe GMP221 Y2009100 2015-06-09Lab 0-3% range
10 CO2 probe GMP221 Y4110008 2012-03-28Factory 0-1% range
9 CO2 probe GMP222 Y2009109 2016-02-23Vaira 0-1% range
8 CO2 probe GMP222 Z2720015 2016-02-23Tonzi 0-1% range
7 CO2 probe GMP221 Y0710013 2016-02-11Lab 0-3% range
6 CO2 probe GMP221 Y0850004 2014-04-22Lab 0-2% range
5 CO2 probe GMP222 Y2030049 2016-02-23Vaira 0-1% range
4 CO2 probe GMP222 Y1950005 2015-11-03Lab 0-1% range
3 Gas Analyzer LI-7500 0065 2016-02-25Lab
2 Gas Analyzer LI-7500 0035 2016-05-10Tonzi Floor
1 Gas Analyzer LI-7500 0042 2016-05-10Lab

 
 

Login
Select Equipment: